UAE4Q VIDP-OMDB

Flight info

Callsign UAE4Q
Flight time N/A
Altitude 38000
Route SURAM6G SURAM G333 MERUN G452 RK G214 BIVIN R462 VUSET A454 PASOV B540 KUPMA/N0469F240 B540 MIVEK P574 IMPED
Aircraft B77W/H-SDE1E2E3FGHIJ2J3J4J5M1RWXY/LB1D1

Departure

Time 2026-05-05 09:13
Airport Indira Gandhi International Airport (VIDP)

Arrival

Time N/A
Airport Dubai International Airport (OMDB)
Time Latitude Longitude Altitude Speed Heading
2026-05-05 08:58 28.55601 77.08104 744 ft 0 kts 144°
2026-05-05 09:05 28.55602 77.08103 744 ft 2 kts 144°
2026-05-05 09:05 28.55616 77.08092 740 ft 2 kts 144°
2026-05-05 09:05 28.55629 77.08081 740 ft 2 kts 144°
2026-05-05 09:06 28.55642 77.08070 739 ft 2 kts 147°
2026-05-05 09:06 28.55658 77.08066 739 ft 2 kts 190°
2026-05-05 09:06 28.55674 77.08072 740 ft 2 kts 207°
2026-05-05 09:06 28.55686 77.08080 739 ft 1 kts 230°
2026-05-05 09:07 28.55687 77.08082 739 ft 0 kts 236°
2026-05-05 09:07 28.55680 77.08070 739 ft 7 kts 234°
2026-05-05 09:08 28.55641 77.07999 743 ft 11 kts 236°
2026-05-05 09:08 28.55623 77.07914 740 ft 12 kts 273°
2026-05-05 09:08 28.55630 77.07853 740 ft 12 kts 283°
2026-05-05 09:08 28.55588 77.07750 740 ft 12 kts 202°
2026-05-05 09:09 28.55533 77.07738 740 ft 12 kts 192°
2026-05-05 09:09 28.55448 77.07715 742 ft 13 kts 193°
2026-05-05 09:09 28.55363 77.07693 741 ft 13 kts 198°
2026-05-05 09:09 28.55270 77.07663 742 ft 15 kts 194°
2026-05-05 09:10 28.55170 77.07636 742 ft 15 kts 193°
2026-05-05 09:10 28.55086 77.07587 742 ft 9 kts 251°
2026-05-05 09:10 28.55098 77.07510 744 ft 11 kts 283°
2026-05-05 09:10 28.55119 77.07422 740 ft 12 kts 287°
2026-05-05 09:11 28.55144 77.07325 738 ft 13 kts 286°
2026-05-05 09:11 28.55172 77.07194 739 ft 23 kts 280°
2026-05-05 09:11 28.55204 77.07031 737 ft 10 kts 277°
2026-05-05 09:11 28.55161 77.06977 737 ft 11 kts 191°
2026-05-05 09:12 28.55081 77.06954 736 ft 15 kts 195°
2026-05-05 09:12 28.54943 77.06913 737 ft 24 kts 194°
2026-05-05 09:12 28.54784 77.06872 737 ft 24 kts 192°
2026-05-05 09:12 28.54656 77.06874 739 ft 13 kts 131°
2026-05-05 09:13 28.54631 77.06966 740 ft 18 kts 104°
2026-05-05 09:13 28.54514 77.07504 746 ft 128 kts 104°
2026-05-05 09:13 28.54224 77.08870 1008 ft 212 kts 103°
2026-05-05 09:13 28.53854 77.10633 2164 ft 236 kts 103°
2026-05-05 09:14 28.53335 77.12381 3893 ft 241 kts 117°
2026-05-05 09:14 28.52162 77.13772 4735 ft 254 kts 152°
2026-05-05 09:14 28.50420 77.14162 5538 ft 262 kts 186°
2026-05-05 09:14 28.48628 77.13754 6334 ft 266 kts 194°
2026-05-05 09:15 28.46809 77.13252 6833 ft 278 kts 195°
2026-05-05 09:15 28.44904 77.12720 6911 ft 285 kts 194°
2026-05-05 09:15 28.42974 77.12201 6909 ft 284 kts 194°
2026-05-05 09:15 28.41055 77.11699 6908 ft 281 kts 194°
2026-05-05 09:16 28.39150 77.11217 6902 ft 280 kts 194°
2026-05-05 09:16 28.37249 77.10733 6910 ft 281 kts 194°
2026-05-05 09:16 28.35346 77.10236 6904 ft 278 kts 198°
2026-05-05 09:16 28.33684 77.09209 6938 ft 273 kts 227°
2026-05-05 09:17 28.32718 77.07413 7717 ft 266 kts 253°
2026-05-05 09:17 28.32377 77.05329 8656 ft 272 kts 271°
2026-05-05 09:17 28.32693 77.03236 9670 ft 270 kts 285°
2026-05-05 09:17 28.33194 77.01127 10401 ft 284 kts 285°
2026-05-05 09:18 28.33741 76.98853 10716 ft 315 kts 285°
2026-05-05 09:18 28.34340 76.96328 10961 ft 347 kts 285°
2026-05-05 09:18 28.34974 76.93610 11537 ft 365 kts 285°
2026-05-05 09:18 28.35616 76.90821 12344 ft 374 kts 284°
2026-05-05 09:19 28.36266 76.87970 13542 ft 374 kts 284°
2026-05-05 09:19 28.36913 76.85087 14553 ft 378 kts 284°
2026-05-05 09:19 28.37623 76.82186 15430 ft 384 kts 289°
2026-05-05 09:19 28.38625 76.79338 16174 ft 393 kts 294°
2026-05-05 09:20 28.39786 76.76504 17039 ft 398 kts 295°
2026-05-05 09:20 28.40986 76.73651 17932 ft 402 kts 295°
2026-05-05 09:20 28.42189 76.70755 18676 ft 408 kts 295°
2026-05-05 09:20 28.43385 76.67811 19426 ft 412 kts 294°
2026-05-05 09:21 28.44576 76.64828 20175 ft 417 kts 294°
2026-05-05 09:21 28.45771 76.61798 20880 ft 422 kts 294°
2026-05-05 09:21 28.46975 76.58732 21640 ft 427 kts 294°
2026-05-05 09:21 28.48193 76.55625 22246 ft 434 kts 294°
2026-05-05 09:22 28.49425 76.52482 23029 ft 436 kts 294°
2026-05-05 09:22 28.50650 76.49354 23612 ft 442 kts 294°
2026-05-05 09:22 28.51909 76.46136 24128 ft 448 kts 294°
2026-05-05 09:22 28.53187 76.42901 24802 ft 449 kts 294°
2026-05-05 09:23 28.54479 76.39671 25490 ft 449 kts 294°
2026-05-05 09:23 28.55783 76.36427 26150 ft 451 kts 294°
2026-05-05 09:23 28.57091 76.33170 26729 ft 454 kts 294°
2026-05-05 09:23 28.58407 76.29892 27260 ft 457 kts 294°
2026-05-05 09:24 28.59714 76.26626 27790 ft 460 kts 294°
2026-05-05 09:24 28.61044 76.23300 28311 ft 463 kts 294°
2026-05-05 09:24 28.62379 76.19954 28811 ft 465 kts 294°
2026-05-05 09:24 28.63721 76.16588 29281 ft 468 kts 294°
2026-05-05 09:25 28.65070 76.13202 29727 ft 470 kts 294°
2026-05-05 09:25 28.66418 76.09815 30220 ft 469 kts 294°
2026-05-05 09:25 28.67761 76.06441 30807 ft 465 kts 294°
2026-05-05 09:25 28.69086 76.03108 31445 ft 460 kts 294°
2026-05-05 09:26 28.70399 75.99802 32060 ft 456 kts 294°
2026-05-05 09:26 28.71702 75.96519 32611 ft 453 kts 294°
2026-05-05 09:26 28.72996 75.93254 33134 ft 451 kts 294°
2026-05-05 09:26 28.74206 75.89978 33577 ft 448 kts 287°
2026-05-05 09:27 28.74818 75.86542 33940 ft 450 kts 275°
2026-05-05 09:27 28.74689 75.82991 34269 ft 449 kts 265°
2026-05-05 09:27 28.74308 75.79445 34485 ft 451 kts 266°
2026-05-05 09:27 28.73953 75.75893 34789 ft 451 kts 266°
2026-05-05 09:28 28.73618 75.72350 35180 ft 449 kts 267°
2026-05-05 09:28 28.73297 75.68825 35587 ft 446 kts 267°
2026-05-05 09:28 28.72984 75.65317 35953 ft 445 kts 268°
2026-05-05 09:28 28.72674 75.61812 36290 ft 444 kts 268°
2026-05-05 09:29 28.72367 75.58315 36622 ft 443 kts 268°
2026-05-05 09:29 28.72059 75.54827 36962 ft 441 kts 268°
2026-05-05 09:29 28.71756 75.51394 37286 ft 440 kts 268°
2026-05-05 09:29 28.71447 75.47925 37614 ft 439 kts 268°
2026-05-05 09:30 28.71137 75.44451 37786 ft 441 kts 268°
2026-05-05 09:30 28.70513 75.37457 37842 ft 444 kts 268°
2026-05-05 09:31 28.69883 75.30499 37838 ft 438 kts 268°
2026-05-05 09:31 28.69261 75.23658 37841 ft 436 kts 268°
2026-05-05 09:32 28.68635 75.16793 37840 ft 435 kts 268°
2026-05-05 09:32 28.68007 75.09934 37839 ft 435 kts 268°
2026-05-05 09:33 28.67374 75.03066 37819 ft 436 kts 268°
2026-05-05 09:33 28.66735 74.96176 37834 ft 438 kts 268°
2026-05-05 09:34 28.66090 74.89262 37838 ft 440 kts 268°
2026-05-05 09:34 28.65442 74.82357 37837 ft 442 kts 268°
2026-05-05 09:35 28.64785 74.75395 37824 ft 443 kts 268°
2026-05-05 09:35 28.63790 74.64922 37826 ft 444 kts 268°
2026-05-05 09:36 28.63122 74.57940 37827 ft 443 kts 268°
2026-05-05 09:36 28.62450 74.50962 37834 ft 443 kts 268°
2026-05-05 09:37 28.61779 74.44021 37834 ft 442 kts 268°
2026-05-05 09:37 28.61104 74.37076 37831 ft 441 kts 268°
2026-05-05 09:38 28.60431 74.30184 37819 ft 440 kts 268°
2026-05-05 09:38 28.59751 74.23265 37824 ft 440 kts 268°
2026-05-05 09:39 28.59068 74.16340 37820 ft 440 kts 268°
2026-05-05 09:39 28.58382 74.09423 37825 ft 440 kts 268°
2026-05-05 09:40 28.57691 74.02497 37816 ft 440 kts 268°
2026-05-05 09:40 28.56998 73.95575 37816 ft 440 kts 268°
2026-05-05 09:41 28.56307 73.88694 37813 ft 440 kts 268°
2026-05-05 09:41 28.55607 73.81772 37850 ft 441 kts 268°
2026-05-05 09:42 28.55099 73.74840 37820 ft 438 kts 271°
2026-05-05 09:42 28.54815 73.67912 37807 ft 438 kts 271°
2026-05-05 09:43 28.54536 73.60987 37808 ft 438 kts 271°
2026-05-05 09:43 28.54247 73.54074 37810 ft 438 kts 271°
2026-05-05 09:44 28.53950 73.47161 37804 ft 438 kts 271°
2026-05-05 09:44 28.53648 73.40245 37802 ft 438 kts 271°
2026-05-05 09:45 28.53344 73.33381 37807 ft 438 kts 271°
2026-05-05 09:45 28.53035 73.26468 37792 ft 438 kts 271°
2026-05-05 09:46 28.52722 73.19559 37803 ft 437 kts 271°
2026-05-05 09:46 28.52407 73.12644 37800 ft 437 kts 271°
2026-05-05 09:47 28.52087 73.05736 37805 ft 437 kts 271°
2026-05-05 09:47 28.51766 72.98867 37806 ft 438 kts 271°
2026-05-05 09:48 28.51440 72.91953 37794 ft 437 kts 271°
2026-05-05 09:48 28.51111 72.85051 37802 ft 437 kts 271°
2026-05-05 09:49 28.50778 72.78148 37801 ft 437 kts 271°
2026-05-05 09:49 28.50444 72.71294 37799 ft 436 kts 271°
2026-05-05 09:50 28.50105 72.64406 37799 ft 436 kts 271°
2026-05-05 09:50 28.49763 72.57526 37792 ft 435 kts 271°
2026-05-05 09:51 28.49418 72.50655 37794 ft 435 kts 271°
2026-05-05 09:51 28.49071 72.43795 37794 ft 434 kts 271°
2026-05-05 09:52 28.48722 72.36941 37796 ft 434 kts 270°
2026-05-05 09:52 28.48373 72.30131 37794 ft 434 kts 270°
2026-05-05 09:53 28.48015 72.23279 37780 ft 434 kts 270°
2026-05-05 09:53 28.47658 72.16424 37793 ft 434 kts 270°
2026-05-05 09:54 28.47305 72.09583 37801 ft 434 kts 270°
2026-05-05 09:54 28.46950 72.02734 37793 ft 434 kts 270°
2026-05-05 09:55 28.46594 71.95924 37809 ft 434 kts 270°
2026-05-05 09:55 28.46233 71.89073 37795 ft 434 kts 270°
2026-05-05 09:56 28.45867 71.82232 37803 ft 433 kts 270°
2026-05-05 09:56 28.45500 71.75394 37802 ft 433 kts 270°
2026-05-05 09:57 28.45131 71.68610 37802 ft 433 kts 270°
2026-05-05 09:57 28.44757 71.61785 37807 ft 432 kts 270°
2026-05-05 09:58 28.44380 71.54961 37795 ft 432 kts 270°
2026-05-05 09:58 28.43998 71.48142 37805 ft 432 kts 270°
2026-05-05 09:59 28.43617 71.41364 37805 ft 431 kts 270°
2026-05-05 09:59 28.43230 71.34558 37805 ft 432 kts 270°
2026-05-05 10:00 28.42841 71.27759 37809 ft 431 kts 270°
2026-05-05 10:00 28.42448 71.20956 37806 ft 431 kts 270°
2026-05-05 10:01 28.42051 71.14154 37806 ft 432 kts 270°
2026-05-05 10:01 28.41653 71.07394 37807 ft 432 kts 270°
2026-05-05 10:02 28.41250 71.00589 37803 ft 432 kts 270°
2026-05-05 10:02 28.40842 70.93778 37804 ft 432 kts 270°
2026-05-05 10:03 28.40432 70.86975 37786 ft 432 kts 270°
2026-05-05 10:03 28.40021 70.80212 37801 ft 432 kts 270°
2026-05-05 10:04 28.39604 70.73408 37802 ft 432 kts 270°
2026-05-05 10:04 28.39184 70.66599 37801 ft 432 kts 270°
2026-05-05 10:05 28.38760 70.59789 37805 ft 432 kts 270°
2026-05-05 10:05 28.38334 70.52982 37795 ft 432 kts 270°
2026-05-05 10:06 28.37905 70.46178 37800 ft 432 kts 270°
2026-05-05 10:06 28.37474 70.39369 37827 ft 432 kts 270°
2026-05-05 10:07 28.37001 70.32559 37807 ft 434 kts 266°
2026-05-05 10:07 28.35631 70.25875 37811 ft 440 kts 258°
2026-05-05 10:08 28.33385 70.19366 37770 ft 446 kts 250°
2026-05-05 10:08 28.31106 70.14112 37784 ft 447 kts 249°
2026-05-05 10:09 28.28335 70.07806 37795 ft 446 kts 250°
2026-05-05 10:09 28.25590 70.01490 37794 ft 446 kts 250°
2026-05-05 10:10 28.22862 69.95169 37792 ft 446 kts 250°
2026-05-05 10:10 28.20132 69.88840 37788 ft 446 kts 250°
2026-05-05 10:11 28.17399 69.82516 37778 ft 446 kts 250°
2026-05-05 10:11 28.14683 69.76244 37784 ft 446 kts 250°
2026-05-05 10:12 28.11946 69.69932 37783 ft 446 kts 250°
2026-05-05 10:12 28.09207 69.63625 37783 ft 446 kts 250°
2026-05-05 10:13 28.06462 69.57316 37784 ft 446 kts 250°
2026-05-05 10:13 28.03716 69.51012 37770 ft 446 kts 249°
2026-05-05 10:14 28.00968 69.44712 37782 ft 446 kts 249°
2026-05-05 10:14 27.98236 69.38459 37781 ft 446 kts 249°
2026-05-05 10:15 27.95486 69.32170 37778 ft 446 kts 249°
2026-05-05 10:15 27.92735 69.25884 37777 ft 446 kts 249°
2026-05-05 10:16 27.89974 69.19612 37784 ft 445 kts 249°
2026-05-05 10:16 27.87197 69.13354 37782 ft 445 kts 249°
2026-05-05 10:17 27.84420 69.07099 37780 ft 445 kts 249°
2026-05-05 10:17 27.81664 69.00885 37771 ft 446 kts 249°
2026-05-05 10:18 27.78885 68.94626 37777 ft 446 kts 249°
2026-05-05 10:18 27.76103 68.88367 37776 ft 446 kts 249°
2026-05-05 10:19 27.73402 68.82077 37762 ft 442 kts 253°
2026-05-05 10:19 27.71523 68.75532 37774 ft 436 kts 261°
2026-05-05 10:20 27.70569 68.69966 37775 ft 434 kts 263°